GW0500 Weather Reports


Display with metric or nautical units.
time (UTC)temp
F
wind
direction
speed
MPH
gust
MPH
rain 1hr
in
rain 24hr
in
rain mn
in
humidity
%
barometer
mb
20260507220546 75 161 1.0 8.0 0.00 0.02 0.02 47 1019.8
20260507220050 75 16 2.0 8.0 0.00 0.02 0.02 44 1019.9
20260507215545 75 153 3.0 9.0 0.00 0.02 0.02 44 1020.0
20260507215045 75 343 3.0 9.0 0.00 0.02 0.02 43 1020.1
20260507214556 75 205 2.0 7.0 0.00 0.02 0.02 45 1020.1
20260507214047 74 76 2.0 9.0 0.00 0.02 0.02 45 1020.0
20260507213551 74 173 2.0 9.0 0.00 0.02 0.02 43 1020.0
20260507213051 74 126 3.0 9.0 0.00 0.02 0.02 39 1020.1
20260507212548 74 222 4.0 12.0 0.00 0.02 0.02 41 1020.2
20260507212047 73 176 3.0 13.0 0.00 0.02 0.02 43 1020.0
20260507211551 74 134 3.0 13.0 0.00 0.02 0.02 41 1020.0
20260507211043 74 186 4.0 11.0 0.00 0.02 0.02 37 1020.0
20260507210548 74 153 3.0 11.0 0.00 0.02 0.02 43 1020.1
20260507210051 75 201 2.0 11.0 0.00 0.02 0.02 38 1020.2
20260507205549 75 146 3.0 11.0 0.00 0.03 0.02 42 1020.3
20260507205045 74 154 1.0 8.0 0.00 0.03 0.02 46 1020.3
20260507204553 74 128 3.0 8.0 0.00 0.03 0.02 45 1020.3
20260507204047 74 144 2.0 11.0 0.00 0.03 0.02 47 1020.3
20260507203547 74 119 4.0 11.0 0.00 0.03 0.02 45 1020.4
20260507203048 74 180 3.0 11.0 0.00 0.03 0.02 47 1020.3
20260507202545 75 127 3.0 8.0 0.00 0.03 0.02 44 1020.3
20260507202047 74 290 2.0 7.0 0.00 0.03 0.02 47 1020.3
20260507201600 74 121 3.0 10.0 0.00 0.03 0.02 47 1020.4
20260507201048 74 197 3.0 10.0 0.00 0.03 0.02 41 1020.5
20260507200551 74 188 1.0 9.0 0.00 0.03 0.02 41 1020.4
20260507200056 74 228 4.0 9.0 0.00 0.03 0.02 40 1020.4
20260507195547 75 129 1.0 9.0 0.00 0.03 0.02 40 1020.4
20260507195050 74 192 2.0 11.0 0.00 0.03 0.02 45 1020.5
20260507194556 74 149 3.0 12.0 0.00 0.03 0.02 43 1020.4
20260507194044 74 111 3.0 12.0 0.00 0.03 0.02 43 1020.4
20260507193547 75 173 3.0 10.0 0.00 0.03 0.02 41 1020.3
20260507193053 75 162 4.0 10.0 0.00 0.03 0.02 41 1020.4
20260507192547 75 145 2.0 7.0 0.00 0.03 0.02 42 1020.5
20260507192045 75 167 1.0 7.0 0.00 0.03 0.02 41 1020.5
20260507191551 75 164 4.0 9.0 0.00 0.03 0.02 39 1020.6
20260507191044 75 166 2.0 9.0 0.00 0.03 0.02 43 1020.6
20260507190544 76 208 1.0 6.0 0.00 0.03 0.02 44 1020.7
20260507190049 76 136 2.0 8.0 0.00 0.03 0.02 38 1020.8
20260507185544 77 209 3.0 8.0 0.00 0.03 0.02 38 1020.7
20260507185047 77 180 0.0 4.0 0.00 0.03 0.02 35 1020.7
20260507184550 77 352 0.0 7.0 0.00 0.03 0.02 26 1020.8
20260507184047 76 307 2.0 7.0 0.00 0.03 0.02 23 1021.0
20260507183550 76 205 2.0 7.0 0.00 0.03 0.02 24 1020.9
20260507183051 76 165 1.0 5.0 0.00 0.03 0.02 28 1021.0
20260507182545 76 213 1.0 6.0 0.00 0.03 0.02 25 1021.0
20260507182048 76 186 1.0 6.0 0.00 0.03 0.02 29 1021.0
20260507181556 76 197 2.0 6.0 0.00 0.03 0.02 25 1021.0
20260507181048 76 171 1.0 6.0 0.00 0.03 0.02 26 1021.0
20260507180547 76 136 1.0 5.0 0.00 0.03 0.02 25 1021.1
20260507180056 76 69 1.0 5.0 0.00 0.03 0.02 25 1021.1
20260507175548 75 360 2.0 7.0 0.00 0.03 0.02 25 1021.2
20260507175045 75 181 1.0 8.0 0.00 0.03 0.02 26 1021.1
20260507174604 75 91 1.0 8.0 0.00 0.03 0.02 26 1021.0
20260507174045 75 103 1.0 7.0 0.00 0.03 0.02 27 1021.0
20260507173544 74 240 1.0 6.0 0.00 0.03 0.02 27 1021.0
20260507173051 74 285 1.0 5.0 0.00 0.03 0.02 30 1021.0
20260507172547 74 326 0.0 4.0 0.00 0.03 0.02 34 1021.0
20260507172047 74 175 0.0 5.0 0.00 0.03 0.02 33 1020.9
20260507171603 73 153 1.0 5.0 0.00 0.03 0.02 29 1020.9
20260507171048 72 338 0.0 4.0 0.00 0.03 0.02 34 1021.0
20260507170548 72 171 1.0 7.0 0.01 0.03 0.02 32 1021.0
20260507170056 72 140 2.0 7.0 0.01 0.03 0.02 35 1021.0
20260507165548 71 211 2.0 5.0 0.01 0.03 0.02 31 1021.0
20260507165047 70 337 1.0 4.0 0.01 0.03 0.02 35 1021.0
20260507164555 70 0 0.0 4.0 0.01 0.03 0.02 41 1020.9
20260507164048 69 0 1.0 4.0 0.01 0.03 0.02 44 1020.8
20260507163547 67 15 0.0 3.0 0.01 0.03 0.02 49 1021.0
20260507163049 67 0 1.0 3.0 0.01 0.03 0.02 45 1021.1
20260507162548 66 53 0.0 2.0 0.01 0.03 0.02 56 1021.1
20260507162047 65 105 0.0 2.0 0.01 0.03 0.02 55 1021.1
20260507161552 63 44 1.0 4.0 0.01 0.03 0.02 60 1021.0
20260507161044 62 0 0.0 4.0 0.01 0.03 0.02 70 1021.1
20260507160544 62 56 0.0 2.0 0.00 0.02 0.01 71 1021.0
20260507160055 61 40 0.0 2.0 0.00 0.02 0.01 71 1021.0
20260507155546 60 40 1.0 5.0 0.00 0.03 0.01 70 1021.0
20260507155044 59 0 1.0 5.0 0.00 0.03 0.01 74 1021.0
20260507154551 58 46 0.0 5.0 0.00 0.03 0.01 73 1021.0
20260507154049 57 0 1.0 2.0 0.00 0.03 0.01 72 1021.0
20260507153548 56 38 0.0 2.0 0.00 0.03 0.01 76 1020.9
20260507153051 55 0 0.0 2.0 0.00 0.03 0.01 76 1020.9
20260507152548 55 0 0.0 2.0 0.00 0.03 0.01 75 1020.9
20260507152048 54 43 0.0 3.0 0.00 0.03 0.01 76 1020.9
20260507151555 53 44 1.0 3.0 0.00 0.03 0.01 77 1021.0
20260507151049 53 38 1.0 2.0 0.00 0.03 0.01 78 1021.0
20260507150547 52 58 0.0 2.0 0.00 0.03 0.01 79 1020.9
20260507150054 52 49 1.0 2.0 0.00 0.03 0.01 80 1020.8
20260507145544 51 0 0.0 2.0 0.00 0.03 0.01 82 1020.9
20260507145044 51 25 0.0 2.0 0.00 0.03 0.01 84 1020.9
20260507144615 50 0 0.0 1.0 0.00 0.03 0.01 85 1020.8
20260507144047 50 0 0.0 1.0 0.00 0.03 0.01 86 1020.9
20260507143544 50 0 0.0 1.0 0.00 0.03 0.01 86 1020.8
20260507143055 49 0 0.0 0.0 0.00 0.03 0.01 86 1020.9
20260507142544 49 0 0.0 0.0 0.00 0.03 0.01 85 1020.8
20260507142044 49 0 0.0 0.0 0.00 0.03 0.01 84 1020.6
20260507141612 49 0 0.0 0.0 0.00 0.03 0.01 83 1020.6
20260507141044 49 0 0.0 0.0 0.00 0.03 0.01 80 1020.6
20260507140544 49 0 0.0 0.0 0.00 0.03 0.01 79 1020.5
20260507140056 49 0 0.0 0.0 0.00 0.03 0.01 78 1020.4
20260507135551 49 0 0.0 0.0 0.00 0.03 0.01 78 1020.5
20260507135048 49 0 0.0 0.0 0.00 0.03 0.01 78 1020.5
20260507134556 49 0 0.0 0.0 0.00 0.03 0.01 77 1020.5
20260507134047 49 0 0.0 0.0 0.00 0.03 0.01 76 1020.4
20260507133548 48 0 0.0 0.0 0.00 0.03 0.01 76 1020.4
20260507133055 48 0 0.0 0.0 0.00 0.03 0.01 75 1020.5
20260507132544 49 0 0.0 0.0 0.00 0.03 0.01 75 1020.3
20260507132048 49 0 0.0 0.0 0.00 0.03 0.01 75 1020.3
20260507131552 48 0 0.0 0.0 0.00 0.03 0.01 74 1020.3
20260507131044 48 0 0.0 0.0 0.00 0.03 0.01 75 1020.2
20260507130547 49 0 0.0 0.0 0.00 0.03 0.01 74 1020.2
20260507130104 49 0 0.0 1.0 0.00 0.03 0.01 75 1020.1
20260507125548 49 0 0.0 2.0 0.00 0.03 0.01 75 1019.9
20260507125047 49 0 0.0 2.0 0.00 0.03 0.01 76 1019.9
20260507124554 49 0 0.0 2.0 0.00 0.03 0.01 76 1019.9
20260507124046 49 0 0.0 2.0 0.00 0.03 0.01 76 1019.9
20260507123544 49 360 0.0 2.0 0.00 0.03 0.01 78 1019.8
20260507123053 49 360 1.0 2.0 0.00 0.03 0.01 78 1019.8
20260507122546 49 0 0.0 2.0 0.00 0.03 0.01 78 1019.8
20260507122047 49 0 1.0 3.0 0.00 0.03 0.01 77 1019.8
20260507121552 49 327 1.0 3.0 0.00 0.03 0.01 79 1019.7
20260507121048 49 0 1.0 2.0 0.00 0.03 0.01 77 1019.8
20260507120545 49 340 0.0 2.0 0.00 0.03 0.01 78 1019.8
20260507120053 49 340 0.0 2.0 0.00 0.03 0.01 77 1019.8
20260507115548 49 340 1.0 2.0 0.00 0.03 0.01 77 1019.8
20260507115047 49 345 1.0 2.0 0.00 0.03 0.01 79 1019.8
20260507114558 48 345 1.0 2.0 0.00 0.03 0.01 78 1019.8
20260507114048 48 345 0.0 2.0 0.00 0.03 0.01 79 1019.8
20260507113544 48 0 0.0 1.0 0.00 0.03 0.01 79 1019.9
20260507113051 48 0 0.0 1.0 0.00 0.03 0.01 79 1019.9
20260507112547 49 0 0.0 2.0 0.00 0.03 0.01 79 1019.9
20260507112046 49 345 0.0 2.0 0.00 0.03 0.01 79 1019.9
20260507111551 48 0 0.0 2.0 0.00 0.03 0.01 79 1019.9
20260507111047 48 0 0.0 3.0 0.00 0.03 0.01 80 1019.8
20260507110548 48 0 1.0 3.0 0.00 0.03 0.01 80 1019.8
20260507110053 48 323 0.0 2.0 0.00 0.03 0.01 81 1019.8
20260507105548 48 360 0.0 3.0 0.00 0.03 0.01 81 1019.9
20260507105051 48 0 0.0 3.0 0.00 0.03 0.01 81 1019.9
20260507104619 48 0 0.0 3.0 0.00 0.03 0.01 80 1020.0
20260507104048 48 0 0.0 2.0 0.00 0.03 0.01 80 1020.0
20260507103548 49 0 0.0 1.0 0.00 0.03 0.01 80 1020.0
20260507103052 49 342 0.0 1.0 0.00 0.03 0.01 78 1020.1
20260507102545 49 342 0.0 1.0 0.00 0.03 0.01 78 1020.1
20260507102046 49 0 0.0 2.0 0.00 0.03 0.01 79 1020.0
20260507101552 49 0 0.0 2.0 0.00 0.03 0.01 79 1020.0
20260507101050 49 342 0.0 2.0 0.00 0.03 0.01 80 1020.0
20260507100545 49 342 1.0 2.0 0.00 0.03 0.01 80 1020.0
20260507100058 49 342 1.0 2.0 0.00 0.03 0.01 80 1020.0
20260507095547 49 342 1.0 2.0 0.00 0.03 0.01 79 1020.0
20260507095049 49 342 0.0 2.0 0.00 0.03 0.01 79 1020.2
20260507094550 49 342 0.0 2.0 0.00 0.03 0.01 78 1020.2
20260507094045 49 0 0.0 2.0 0.00 0.03 0.01 79 1020.2
20260507093548 49 342 0.0 2.0 0.00 0.03 0.01 78 1020.2
20260507093055 49 0 0.0 2.0 0.00 0.03 0.01 78 1020.2
20260507092548 49 0 0.0 2.0 0.00 0.03 0.01 78 1020.2
20260507092050 49 342 0.0 2.0 0.00 0.03 0.01 79 1020.3
20260507091558 49 0 0.0 1.0 0.00 0.03 0.01 79 1020.3
20260507091048 49 0 0.0 1.0 0.00 0.03 0.01 79 1020.3
20260507090548 49 0 0.0 0.0 0.00 0.03 0.01 79 1020.5
20260507090050 49 0 0.0 1.0 0.00 0.03 0.01 80 1020.5
20260507085547 49 0 0.0 1.0 0.00 0.03 0.01 80 1020.5
20260507085049 49 0 0.0 1.0 0.00 0.03 0.01 80 1020.6
20260507084553 49 0 0.0 0.0 0.00 0.03 0.01 79 1020.6
20260507084045 49 0 0.0 1.0 0.00 0.03 0.01 79 1020.6
20260507083547 50 0 0.0 1.0 0.00 0.03 0.01 81 1020.6
20260507083053 50 0 0.0 1.0 0.00 0.03 0.01 79 1020.6
20260507082551 50 0 0.0 1.0 0.00 0.03 0.01 78 1020.7
20260507082045 49 0 0.0 1.0 0.00 0.03 0.01 78 1020.7
20260507081551 49 342 0.0 1.0 0.01 0.03 0.01 79 1020.7
20260507081048 49 0 0.0 2.0 0.01 0.03 0.01 80 1020.7
20260507080546 48 0 0.0 2.0 0.01 0.03 0.01 82 1020.8
20260507080056 48 0 0.0 1.0 0.01 0.03 0.01 82 1020.8
20260507075548 48 0 0.0 1.0 0.01 0.04 0.01 84 1020.8
20260507075048 48 0 0.0 1.0 0.01 0.04 0.01 84 1020.9
20260507074556 48 0 0.0 0.0 0.01 0.04 0.01 84 1020.9
20260507074046 48 0 0.0 0.0 0.01 0.04 0.01 84 1020.9
20260507073548 48 0 0.0 0.0 0.01 0.04 0.01 84 1020.9
20260507073101 48 0 0.0 0.0 0.01 0.04 0.01 83 1020.9
20260507072547 48 0 0.0 0.0 0.01 0.04 0.01 83 1021.0
20260507072048 48 0 0.0 0.0 0.01 0.04 0.01 83 1021.0
20260507071558 48 0 0.0 0.0 0.00 0.03 0.00 83 1021.1
20260507071047 48 0 0.0 0.0 0.00 0.03 0.00 83 1021.1
20260507070547 48 0 0.0 0.0 0.00 0.03 0.00 84 1021.2
20260507065549 48 0 0.0 0.0 0.00 0.03 0.03 85 1021.3
20260507065044 48 0 0.0 0.0 0.00 0.03 0.03 85 1021.3
20260507064559 49 0 0.0 0.0 0.00 0.03 0.03 84 1021.3
20260507064047 49 0 0.0 0.0 0.00 0.03 0.03 83 1021.3
20260507063550 49 0 0.0 0.0 0.00 0.03 0.03 83 1021.4
20260507063104 49 0 0.0 1.0 0.00 0.03 0.03 83 1021.4
20260507062546 49 0 0.0 1.0 0.00 0.03 0.03 82 1021.3
20260507062046 50 342 0.0 0.0 0.00 0.03 0.03 82 1021.4
20260507061558 50 0 0.0 1.0 0.00 0.03 0.03 81 1021.3
20260507061048 50 0 0.0 1.0 0.00 0.03 0.03 81 1021.2
20260507060545 50 0 0.0 1.0 0.00 0.03 0.03 82 1021.3
20260507060058 51 0 0.0 1.0 0.00 0.03 0.03 82 1021.1
20260507055547 51 0 0.0 2.0 0.00 0.03 0.03 81 1021.1
20260507055047 51 342 0.0 2.0 0.00 0.03 0.03 81 1021.1
20260507054601 51 342 0.0 2.0 0.00 0.03 0.03 80 1021.2
20260507054047 51 342 0.0 2.0 0.00 0.03 0.03 80 1021.4
20260507053547 52 342 0.0 2.0 0.00 0.03 0.03 79 1021.3
20260507053059 52 342 0.0 3.0 0.00 0.03 0.03 80 1021.3
20260507052546 52 342 0.0 3.0 0.00 0.03 0.03 78 1021.3
20260507052047 52 324 0.0 4.0 0.00 0.03 0.03 77 1021.4
20260507051558 52 0 0.0 4.0 0.00 0.03 0.03 78 1021.4
20260507051046 52 5 0.0 2.0 0.00 0.03 0.03 79 1021.4
20260507050547 52 0 0.0 2.0 0.00 0.03 0.03 78 1021.4
20260507050056 52 0 0.0 2.0 0.00 0.03 0.03 80 1021.4
20260507045551 52 0 0.0 2.0 0.00 0.03 0.03 80 1021.4
20260507045046 52 5 0.0 2.0 0.00 0.03 0.03 81 1021.3
20260507044601 52 0 0.0 2.0 0.00 0.03 0.03 80 1021.3
20260507044043 52 5 0.0 3.0 0.00 0.03 0.03 81 1021.3
20260507043547 52 5 0.0 3.0 0.00 0.03 0.03 82 1021.3
20260507043059 51 5 0.0 3.0 0.00 0.03 0.03 83 1021.2
20260507042544 51 0 0.0 2.0 0.00 0.03 0.03 85 1021.1
20260507042047 51 0 0.0 2.0 0.00 0.03 0.03 85 1021.1
20260507041559 50 0 0.0 1.0 0.00 0.03 0.03 86 1021.1
20260507041045 50 0 0.0 1.0 0.00 0.03 0.03 86 1021.1
20260507040549 50 0 0.0 1.0 0.00 0.03 0.03 87 1021.1
20260507040054 50 0 0.0 1.0 0.00 0.03 0.03 87 1021.1
20260507035547 50 0 0.0 2.0 0.00 0.04 0.03 88 1020.9
20260507035047 50 0 0.0 2.0 0.00 0.04 0.03 88 1020.9
20260507034606 50 0 0.0 2.0 0.00 0.04 0.03 88 1020.8
20260507034044 50 0 0.0 2.0 0.00 0.04 0.03 88 1020.7
20260507033547 51 0 0.0 2.0 0.00 0.04 0.03 88 1020.7
20260507033056 51 0 0.0 1.0 0.00 0.04 0.03 88 1020.6
20260507032544 51 0 0.0 0.0 0.00 0.04 0.03 88 1020.6
20260507032046 51 0 0.0 1.0 0.00 0.04 0.03 88 1020.6
20260507031559 51 0 0.0 1.0 0.00 0.04 0.03 88 1020.6
20260507031044 52 0 0.0 1.0 0.00 0.04 0.03 88 1020.6
20260507030550 52 0 0.0 0.0 0.00 0.04 0.03 87 1020.5
20260507030101 52 0 0.0 0.0 0.00 0.04 0.03 88 1020.6
20260507025548 52 0 0.0 1.0 0.00 0.04 0.03 87 1020.6
20260507025047 53 0 0.0 1.0 0.00 0.04 0.03 87 1020.5
20260507024558 53 0 0.0 1.0 0.00 0.04 0.03 87 1020.5
20260507024045 53 0 0.0 1.0 0.00 0.04 0.03 86 1020.4
20260507023545 54 0 0.0 0.0 0.00 0.04 0.03 86 1020.4
20260507023056 54 0 0.0 0.0 0.00 0.04 0.03 86 1020.4
20260507022545 54 0 0.0 0.0 0.00 0.04 0.03 84 1020.5
20260507022046 55 0 0.0 0.0 0.00 0.04 0.03 84 1020.5
20260507021557 55 0 0.0 0.0 0.00 0.04 0.03 84 1020.4
20260507021047 55 0 0.0 0.0 0.00 0.04 0.03 83 1020.3
20260507020547 56 0 0.0 0.0 0.00 0.04 0.03 82 1020.4
20260507020055 56 0 0.0 1.0 0.00 0.04 0.03 82 1020.3
20260507015546 56 0 0.0 1.0 0.00 0.04 0.03 81 1020.2
20260507015046 57 0 0.0 0.0 0.00 0.04 0.03 81 1020.3
20260507014556 57 0 0.0 1.0 0.00 0.04 0.03 80 1020.3
20260507014046 58 0 0.0 2.0 0.00 0.04 0.03 78 1020.3
20260507013547 58 0 0.0 6.0 0.00 0.04 0.03 77 1020.2
20260507013101 59 0 0.0 6.0 0.00 0.04 0.03 77 1020.2
20260507012547 59 190 0.0 4.0 0.00 0.04 0.03 76 1020.2
20260507012047 59 0 0.0 4.0 0.00 0.04 0.03 75 1020.1
20260507011556 60 0 1.0 4.0 0.00 0.04 0.03 74 1020.2
20260507011051 60 195 1.0 5.0 0.00 0.04 0.03 74 1020.2
20260507010547 60 224 1.0 6.0 0.00 0.04 0.03 73 1020.0
20260507010047 61 236 1.0 7.0 0.00 0.04 0.03 72 1020.0
20260507005547 61 0 2.0 8.0 0.00 0.05 0.03 72 1020.0
20260507005046 62 231 3.0 8.0 0.00 0.05 0.03 71 1020.0
20260507004550 62 181 1.0 4.0 0.00 0.05 0.03 70 1020.0
20260507004047 62 0 1.0 4.0 0.00 0.05 0.03 69 1020.0
20260507003550 63 0 0.0 4.0 0.00 0.05 0.03 69 1019.9
20260507003051 63 0 0.0 5.0 0.00 0.05 0.03 68 1019.9
20260507002546 63 161 2.0 5.0 0.00 0.05 0.03 67 1019.9
20260507002046 63 205 1.0 4.0 0.00 0.05 0.03 66 1019.7
20260507001552 63 205 1.0 7.0 0.00 0.05 0.03 66 1019.7
20260507001045 63 209 2.0 7.0 0.00 0.05 0.03 66 1019.7
20260507000551 64 211 2.0 7.0 0.00 0.05 0.03 65 1019.6
20260507000053 64 205 3.0 10.0 0.00 0.05 0.03 64 1019.6
20260506235547 64 156 2.0 10.0 0.00 0.05 0.03 65 1019.5
20260506235050 64 0 1.0 6.0 0.00 0.05 0.03 64 1019.4
20260506234555 64 151 2.0 8.0 0.00 0.05 0.03 66 1019.5
20260506234051 64 157 3.0 8.0 0.00 0.05 0.03 64 1019.5
20260506233547 64 188 2.0 7.0 0.00 0.05 0.03 63 1019.4
20260506233052 64 145 2.0 7.0 0.00 0.05 0.03 64 1019.5
20260506232549 65 172 3.0 7.0 0.00 0.05 0.03 62 1019.5
20260506232044 65 177 1.0 5.0 0.00 0.05 0.03 61 1019.5
20260506231651 65 271 1.0 6.0 0.00 0.05 0.03 61 1019.5
20260506231048 65 159 2.0 6.0 0.00 0.05 0.03 61 1019.5
20260506230546 65 190 1.0 7.0 0.00 0.05 0.03 60 1019.5
20260506230056 65 38 1.0 7.0 0.00 0.05 0.03 61 1019.5
20260506225548 65 158 1.0 5.0 0.00 0.06 0.03 61 1019.6
20260506225047 65 138 2.0 7.0 0.00 0.06 0.03 58 1019.6
20260506224601 65 155 2.0 7.0 0.00 0.06 0.03 58 1019.5
20260506224118 65 191 2.0 7.0 0.00 0.06 0.03 59 1019.6
20260506224047 65 191 2.0 7.0 0.00 0.06 0.03 59 1019.6
20260506223547 66 148 2.0 7.0 0.00 0.06 0.03 57 1019.7
20260506223049 66 195 2.0 6.0 0.00 0.06 0.03 54 1019.7
20260506222550 66 148 2.0 6.0 0.00 0.06 0.03 59 1019.7
20260506222046 66 216 1.0 9.0 0.00 0.06 0.03 56 1019.7
20260506221553 66 170 1.0 9.0 0.00 0.06 0.03 58 1019.7
20260506221045 66 199 3.0 9.0 0.00 0.06 0.03 55 1019.9